Back to catalog

STARLINK-31587

AliveCommunicationsVLEO
NORAD 59570·PAYLOAD·🇺🇸 United States

Launched Apr 23, 2024 from Cape Canaveral Space Force Station

Loading…

Next Passes (next 24 hours)

TLE

FreshSource: CelesTrak SupGP

Epoch: Sep 14, 2026, 14:12 UTC

1 59570C 24076G   26257.59215278  .00000409  00000+0  14825-4 0  2579
2 59570  43.0046  22.3487 0001854 277.2978 344.6444 15.27575575    10

Track STARLINK-31587 in real time with AllMySat

Download on the App Store